Regional Weather Roundup
Issued by NWS

Home | Current Version | Previous Version | Graphics & Text | Print | Product List | Glossary On
Versions: 1 2 3 4 5 6 7 8 9 10 11 12 13 14 15 16 17 18 19 20 21 22 23 24 25 26 27 28 29 30 31 32 33 34 35 36 37 38 39 40 41 42 43 44 45 46 47 48 49 50
000
ASUS43 KFSD 031810
RWRSD

WEATHER ROUNDUP FOR SOUTH DAKOTA
NATIONAL WEATHER SERVICE SIOUX FALLS SD
1200 PM CST SAT DEC 03 2016

NOTE: "FAIR" INDICATES FEW OR NO CLOUDS BELOW 12,000 FEET WITH NO
SIGNIFICANT WEATHER AND/OR OBSTRUCTIONS TO VISIBILITY.


SDZ001>005-009-010-012>017-031900-
NORTHWEST AND NORTH CENTRAL SOUTH DAKOTA

CITY           SKY/WX    TMP DP  RH WIND       PRES   REMARKS
BUFFALO          N/A     32  25  75 W14       29.79F WCI  22
FAITH            N/A     22  21  96 S7        29.89F WCI  13
MOBRIDGE       MOSUNNY   34  26  72 S12       29.92F WCI  25
$$

SDZ012>016-024>037-041>051-057-063-072>074-031900-
SOUTHWEST AND SOUTH CENTRAL SOUTH DAKOTA

CITY           SKY/WX    TMP DP  RH WIND       PRES   REMARKS
RAPID CTY ARPT SUNNY     39  18  42 N14       29.88F
PIERRE         SUNNY     34  29  82 SE16      29.94F WCI  24
CUSTER         PTSUNNY   33   9  36 NW9G17    29.83S WCI  25
ELLSWORTH AFB  SUNNY     36  18  47 N9        29.88S
PHILIP         SUNNY     37  25  61 SW12      29.92F
PINE RIDGE     SUNNY     36  16  44 W15G24    29.92F
SPEARFISH      FAIR      36  18  48 W13G24    29.88S
$$

SDZ004>011-016>023-039-040-031900-
NORTHEAST SOUTH DAKOTA

CITY           SKY/WX    TMP DP  RH WIND       PRES   REMARKS
ABERDEEN       SUNNY     32  27  81 S15       30.05F WCI  22
WATERTOWN      PTSUNNY   32  28  85 S14       30.09F WCI  22
BROOKINGS      MOSUNNY   33  29  85 S17       30.12F WCI  22
SISSETON         N/A     31  26  82 S15       30.11F WCI  20
$$

SDZ017-020-022-023-036>040-048>070-031900-
SOUTHEAST SOUTH DAKOTA

CITY           SKY/WX    TMP DP  RH WIND       PRES   REMARKS
SIOUX FALLS    CLOUDY    35  30  82 S12       30.17F WCI  27
HURON          MIX PCPN  32  30  92 S17       30.09F WCI  21
CHAMBERLAIN    CLOUDY    36  35  96 SE14      30.01F
MITCHELL       FLURRIES  33  31  92 S12       30.13F WCI  24
YANKTON        PTSUNNY   36  30  80 S7        30.18F
$$

ABBREVIATIONS USED IN REMARKS
   TC - TEMPERATURE IN CELSIUS
  WCI - WIND CHILL INDEX
   HX - HEAT INDEX
  VSB - VISIBILITY





USA.gov is the U.S. government's official web portal to all federal, state and local government web resources and services.